This is the latest recevied weather packets stored in our database for station/object IW1QAF-33. If no packets are shown the sender has not sent any weather packets the latest 1 day(s).
| Time | Temp. | Humidity | Pressure | Rain* | Wind** | Luminosity | Snow |
|---|---|---|---|---|---|---|---|
| 1778033898 | 16.11° C | 100% | 1005 hPa | 1.02 mm | 0 m/s | 0 W/m² | - |
| 1778033293 | 15° C | 100% | 1006 hPa | 0.76 mm | 0 m/s | 0 W/m² | - |
| 1778032690 | 16.11° C | 100% | 1007 hPa | 0.76 mm | 0 m/s | 0 W/m² | - |
| 1778030274 | 15° C | 100% | 1007 hPa | 0.51 mm | 0.45 m/s, 213° | 0 W/m² | - |
| 1778029670 | 14.44° C | 100% | 1007 hPa | 0.51 mm | 0 m/s | 0 W/m² | - |
| 1778028462 | 13.89° C | 100% | 1007 hPa | 0.25 mm | 0 m/s | 0 W/m² | - |
| 1778027858 | 15.56° C | 100% | 1008 hPa | 0.25 mm | 0 m/s | 0 W/m² | - |
| 1778027254 | 15.56° C | 100% | 1009 hPa | 0.25 mm | 0 m/s | 0 W/m² | - |
| 1778026650 | 16.67° C | 100% | 1008 hPa | 0 mm | 0.45 m/s, 171° | 0 W/m² | - |
| 1778025442 | 15.56° C | 100% | 1008 hPa | 0 mm | 0.45 m/s, 180° | 0 W/m² | - |
| 1778024838 | 17.22° C | 100% | 1009 hPa | 0 mm | 0.45 m/s, 148° | 0 W/m² | - |
| 1778023630 | 17.22° C | 100% | 1009 hPa | 0 mm | 0 m/s | 0 W/m² | - |
| 1778023026 | 15° C | 100% | 1008 hPa | 0 mm | 0.45 m/s, 148° | 0 W/m² | - |
| 1778021818 | 15° C | 100% | 1008 hPa | 0 mm | 0.45 m/s, 152° | 0 W/m² | - |
| 1778021214 | 16.11° C | 100% | 1009 hPa | 0 mm | 0.45 m/s, 175° | 0 W/m² | - |
| 1778020610 | 16.11° C | 100% | 1009 hPa | 0 mm | 0.45 m/s, 180° | 0 W/m² | - |
| 1778020006 | 16.11° C | 100% | 1009 hPa | 0 mm | 0.45 m/s, 171° | 0 W/m² | - |
| 1778018798 | 15° C | 100% | 1009 hPa | 0 mm | 0.45 m/s, 171° | 0 W/m² | - |
| 1778018194 | 15° C | 100% | 1010 hPa | 0 mm | 0.45 m/s, 180° | 0 W/m² | - |
| 1778017590 | 15° C | 100% | 1010 hPa | 0 mm | 0.45 m/s, 180° | 0 W/m² | - |
| 1778016382 | 15° C | 100% | 1010 hPa | 0 mm | 0.45 m/s, 171° | 0 W/m² | - |
| 1778015174 | 14.44° C | 100% | 1010 hPa | 0 mm | 0.45 m/s, 175° | 0 W/m² | - |
| 1778014570 | 15° C | 100% | 1010 hPa | 0 mm | 0.45 m/s, 180° | 0 W/m² | - |
| 1778013966 | 15° C | 100% | 1010 hPa | 0 mm | 0.45 m/s, 180° | 0 W/m² | - |
| 1778012155 | 15.56° C | 100% | 1010 hPa | 0 mm | 0.45 m/s, 171° | 0 W/m² | - |
* Rain latest hour (hover to see other rain measurements)
** Current wind speed in m/s (hover to see current wind gust speed)